Theta_e
295 295 295 296 297 297 297 298 298 299 299 299 299 299 300 299 299 298 297 297 297 297 297 296 296 296 296 295 295 295 295 295 294 294 294 293 293 293 294 295 295 296
294 294 294 294 295 295 295 296 297 297 298 298 298 298 298 298 298 298 297 297 296 296 296 296 296 296 295 295 295 295 295 294 294 294 294 293 293 293 293 293 294 295
292 292 293 293 294 294 294 294 295 296 296 296 296 296 297 297 297 297 296 296 296 296 296 295 295 295 295 295 295 294 294 294 294 294 294 293 293 293 292 292 293 294
291 291 291 292 292 293 293 293 293 294 294 294 295 295 295 296 296 296 295 295 295 295 295 295 295 295 295 294 294 294 294 294 294 293 293 293 293 292 292 292 292 293
290 290 290 290 291 292 292 292 292 293 293 293 293 293 294 294 295 295 295 295 294 294 294 294 294 294 294 294 294 294 294 293 293 293 293 293 292 292 292 292 292 292
289 289 289 289 289 289 290 291 291 292 292 292 292 292 293 293 293 294 294 294 294 294 294 294 294 294 294 294 294 293 293 293 293 293 293 292 292 292 292 291 291 291
289 288 288 288 288 288 288 288 289 290 290 291 291 292 292 292 292 293 293 293 293 293 293 293 293 293 293 293 293 293 293 293 293 292 292 292 292 292 292 291 291 291
288 287 287 286 286 286 286 286 287 287 288 289 290 291 291 291 291 291 292 292 292 293 293 293 293 293 293 293 292 292 292 292 292 292 292 292 292 292 292 291 291 291
287 286 286 286 286 285 285 285 286 286 286 287 288 289 290 290 291 291 291 291 291 292 292 292 292 292 292 292 292 292 292 292 292 292 292 291 291 291 291 291 291 291
287 287 286 286 286 285 285 285 285 285 286 285 286 286 287 288 289 290 290 290 290 291 291 291 292 292 292 292 292 291 291 291 291 292 291 291 291 291 291 291 291 291
287 287 287 286 286 285 285 285 285 285 285 285 285 285 285 286 287 288 289 290 290 290 290 290 291 291 291 291 291 291 291 291 291 291 291 291 291 291 291 291 291 291
287 287 288 287 286 285 285 285 285 285 285 285 285 285 285 285 285 286 287 288 289 290 290 290 290 290 290 290 290 290 291 290 290 290 290 290 290 290 291 291 291 291
286 287 287 288 287 286 285 284 284 284 284 284 285 285 285 285 285 285 285 286 287 288 289 289 290 290 290 290 290 290 290 290 290 290 290 290 290 290 290 290 290 290
286 286 287 288 287 286 285 284 284 283 283 283 284 284 284 285 284 284 285 285 285 286 287 288 289 289 289 289 289 289 289 289 289 289 289 289 289 289 289 289 289 290
285 285 286 287 286 285 285 284 283 282 281 282 283 283 284 284 284 284 285 285 285 285 286 286 287 288 288 289 289 289 289 289 289 289 289 289 289 289 289 289 289 289
284 284 285 285 285 284 283 283 282 281 281 283 283 284 284 284 284 284 284 284 285 285 285 286 286 286 287 288 289 289 289 289 289 288 288 288 288 288 288 288 288 288
284 284 284 284 283 282 282 281 281 280 281 282 283 284 285 285 284 284 284 284 285 285 285 285 286 286 286 286 287 288 289 289 289 289 288 288 288 288 288 288 288 288
283 283 283 283 282 282 281 280 280 280 280 281 282 283 284 284 284 284 284 284 284 284 285 285 285 286 286 286 286 287 288 288 289 289 289 288 288 288 288 288 288 288
282 282 282 282 282 281 281 280 279 279 279 279 280 281 283 284 284 284 284 284 284 285 285 285 285 285 285 285 285 285 286 288 288 288 288 288 288 288 288 288 288 288
282 281 281 281 281 281 280 279 279 278 278 278 278 280 281 282 283 283 283 284 284 284 284 284 284 285 285 284 284 284 284 286 288 288 289 288 288 288 288 288 288 288
281 281 281 281 280 280 279 279 278 277 277 277 277 278 279 280 281 282 282 283 283 283 283 283 284 284 284 283 283 283 283 285 287 288 288 289 288 288 288 288 288 288
281 280 280 280 280 279 278 278 277 277 276 276 276 277 277 278 279 280 281 281 282 282 282 282 283 283 284 284 283 283 284 285 286 287 288 288 288 288 288 288 288 288
280 279 279 279 279 278 278 277 276 276 275 275 275 275 276 277 278 279 279 280 280 281 281 282 282 283 283 284 284 283 284 285 285 286 287 288 288 288 288 288 288 288
278 278 278 277 277 277 277 276 275 275 275 274 274 274 275 275 277 278 278 278 279 279 280 280 281 281 282 283 283 283 284 284 285 286 287 287 288 288 288 288 288 288
276 276 276 276 275 275 275 275 274 274 274 274 274 274 274 274 275 276 277 277 277 277 278 278 279 279 280 281 282 283 283 283 284 286 286 287 287 287 288 288 289 288
274 274 274 274 274 273 273 273 273 272 273 273 272 273 273 273 274 275 275 275 275 275 275 275 276 277 278 280 281 282 283 283 284 285 286 286 286 287 288 288 288 289
Wind_Speed
21 18 16 14 11 11 11 11 11 12 12 12 13 13 13 12 11 13 16 19 20 22 23 23 25 27 29 30 32 33 34 35 37 38 39 41 42 41 41 40 37 35
24 22 21 18 15 15 14 12 12 11 12 12 13 13 13 14 12 13 16 19 20 21 23 24 24 26 27 29 31 33 34 34 35 37 38 39 41 41 42 42 41 39
26 25 24 21 18 18 17 15 13 12 12 12 12 13 14 14 14 15 18 19 20 21 22 24 24 25 27 28 30 31 33 34 35 35 37 39 39 40 41 42 42 42
24 25 26 24 21 20 17 17 16 14 13 13 13 13 13 14 15 16 17 19 20 21 22 23 24 25 27 28 28 30 32 33 34 33 34 38 39 39 40 40 40 42
20 21 23 23 23 22 20 19 19 17 16 15 14 14 13 13 14 15 15 16 18 19 21 22 23 24 26 27 28 29 31 31 33 33 33 35 37 38 39 39 39 41
19 19 21 22 22 22 21 21 21 20 19 19 17 15 14 14 14 14 15 15 16 17 19 20 21 23 24 25 27 29 30 30 31 32 33 35 35 36 37 38 39 39
18 18 19 20 21 22 23 22 22 21 21 21 20 18 17 16 15 14 15 15 16 17 18 19 20 22 23 24 25 27 28 29 30 31 33 34 35 35 37 37 38 38
19 19 20 21 21 22 24 24 25 24 24 23 22 21 20 19 17 16 15 15 15 17 18 19 20 21 22 23 24 26 26 28 29 30 31 33 34 36 36 35 36 38
21 22 23 23 23 24 26 26 25 25 25 26 25 24 23 21 20 19 17 16 16 16 17 19 19 20 22 23 24 25 26 27 28 30 31 32 33 35 36 35 35 38
20 22 24 26 26 26 27 27 27 26 27 28 27 27 27 25 23 21 20 18 18 18 17 19 20 21 22 23 24 25 26 27 28 29 32 33 34 34 34 35 36 38
18 18 20 23 25 27 27 27 28 28 29 30 29 30 29 28 27 25 23 21 19 19 19 20 21 21 22 23 24 25 26 28 28 29 30 33 35 36 35 35 36 39
18 18 17 17 20 24 26 27 28 29 29 30 30 30 29 27 27 26 25 24 22 20 20 21 21 22 23 24 25 25 26 27 28 29 30 31 33 34 35 36 37 40
18 19 18 16 17 21 24 26 27 26 29 30 29 30 29 27 27 26 25 25 24 23 22 21 22 22 23 24 26 26 27 28 29 30 31 32 32 32 33 35 38 41
16 17 16 15 18 20 22 25 26 27 31 31 30 30 29 29 29 29 28 27 25 24 23 23 22 22 23 24 25 26 28 29 31 31 32 33 34 34 34 35 37 40
18 18 15 14 17 19 20 22 27 32 33 31 30 29 27 27 28 29 28 28 27 26 25 23 22 23 23 24 25 25 26 28 29 30 32 33 34 35 36 37 39 39
21 21 18 16 18 23 23 23 27 31 30 28 29 28 26 26 27 27 28 28 28 27 26 25 23 23 24 24 25 26 27 28 29 30 31 32 32 33 34 36 38 40
20 21 21 21 23 27 29 31 31 30 29 28 29 28 27 26 26 26 27 27 27 28 27 26 25 24 24 24 25 26 27 28 30 31 31 32 32 33 34 35 36 37
20 21 23 25 26 27 29 32 33 32 30 30 29 29 29 29 28 27 26 26 27 28 28 28 27 27 26 26 26 26 26 27 30 31 32 33 33 33 34 35 35 36
21 23 26 27 27 28 30 31 33 34 34 33 31 30 30 30 31 30 28 27 26 25 26 27 29 30 29 29 29 28 27 27 29 31 32 34 35 34 34 35 35 35
21 24 26 27 28 29 31 32 34 34 35 36 35 33 31 31 32 33 33 31 29 27 28 28 28 29 31 32 32 30 29 28 28 30 32 34 36 36 36 37 37 35
23 24 25 26 28 29 31 34 35 35 37 39 37 34 33 33 33 34 36 35 34 33 33 33 33 33 34 35 35 33 31 28 27 29 31 34 36 37 37 38 38 37
23 24 25 26 27 29 31 33 35 37 39 39 35 32 33 34 34 36 36 38 39 37 35 36 38 36 33 33 34 33 30 28 28 29 30 32 35 36 37 38 39 38
21 23 26 28 28 29 31 33 34 36 38 37 34 33 34 34 35 36 37 38 40 40 37 37 39 39 34 32 33 32 29 28 29 30 30 32 34 35 36 37 39 39
22 25 27 29 30 30 32 33 33 33 33 33 33 33 35 36 35 35 37 38 39 40 40 39 41 44 40 35 35 34 32 30 30 29 30 32 33 34 34 36 38 40
25 28 30 31 32 33 33 34 34 34 34 33 32 32 34 35 34 34 38 40 40 41 42 41 43 46 46 41 37 35 34 33 31 28 29 30 31 32 33 34 37 38
30 31 32 33 33 34 35 36 35 36 35 34 34 33 32 32 34 36 38 41 41 41 42 43 45 48 51 48 42 37 35 34 32 29 29 30 30 30 31 32 34 35
Wind_Direction
25 20 13 6 357 347 338 331 327 320 313 310 306 301 297 291 276 267 271 270 262 256 251 247 245 243 241 238 234 233 233 232 232 232 231 230 229 228 226 226 224 223
28 24 21 15 6 359 352 340 330 320 313 308 306 301 297 295 284 273 278 277 269 263 258 253 249 247 244 240 238 237 235 235 234 234 233 233 232 230 228 227 226 225
28 26 24 19 10 5 1 355 345 332 321 314 307 303 298 293 286 281 284 282 275 269 263 258 254 249 247 245 243 241 238 236 236 236 234 234 234 233 231 230 229 227
22 23 23 21 16 9 4 3 358 347 336 328 319 312 305 296 289 288 289 283 277 274 268 263 259 254 251 249 245 242 241 239 238 237 236 236 235 235 233 232 232 230
20 20 21 20 18 14 10 9 5 359 353 345 335 328 320 309 299 294 292 286 279 277 273 267 264 259 256 252 246 243 242 241 239 238 238 239 237 236 235 234 234 233
21 20 19 18 17 15 13 11 8 5 1 356 351 345 336 325 312 302 297 292 283 278 276 272 267 263 259 254 248 246 243 240 239 238 237 240 240 238 237 235 235 235
19 19 18 17 16 15 14 11 10 8 4 0 359 356 351 342 329 317 309 301 290 281 277 275 271 265 261 256 251 250 247 243 241 239 237 239 240 239 238 237 236 236
17 16 16 16 15 14 13 11 10 9 8 7 3 359 357 352 342 331 322 312 301 289 281 278 275 269 264 259 254 253 251 248 245 241 239 239 239 238 238 238 237 237
12 11 12 12 12 10 10 10 10 8 8 9 7 3 0 356 350 342 332 323 314 302 290 282 278 274 268 262 258 256 254 253 250 245 243 241 240 239 237 236 238 239
1 4 6 6 6 5 4 4 4 4 5 7 6 4 3 359 356 350 342 332 322 314 304 291 284 280 274 267 263 261 258 256 255 251 248 245 244 244 242 238 238 240
349 351 354 358 360 359 358 358 357 358 360 2 2 1 1 359 357 354 348 340 329 320 313 303 294 287 280 274 269 267 263 260 259 256 254 252 250 249 247 243 241 241
344 342 340 342 346 350 351 352 352 352 353 354 354 354 355 354 352 350 348 343 336 326 318 310 304 296 288 282 276 272 267 264 263 261 258 258 256 253 251 248 246 245
339 338 335 331 333 338 340 342 345 347 347 347 347 346 346 345 344 344 343 341 338 333 326 317 311 303 295 289 285 279 272 269 268 264 261 260 258 258 256 252 249 247
333 332 329 326 327 330 332 333 335 337 341 342 341 340 339 337 337 337 337 335 333 331 329 323 316 308 300 294 289 284 279 276 273 267 264 262 261 260 258 255 253 250
329 329 326 321 322 324 325 326 329 332 335 334 332 332 331 328 329 330 330 330 329 326 324 322 317 311 306 300 293 288 283 280 277 272 268 265 263 262 260 257 255 253
325 326 324 319 320 322 322 322 324 327 327 325 323 322 320 320 321 320 320 321 322 321 319 317 313 311 310 307 300 293 287 280 277 274 271 268 265 264 263 260 257 255
320 321 321 319 318 319 320 321 322 323 322 320 319 315 311 312 311 310 311 312 313 314 313 310 307 306 308 308 304 300 293 284 278 274 271 269 266 263 262 260 259 257
315 316 316 315 314 315 315 317 319 319 318 316 314 311 309 306 304 301 301 302 303 304 304 304 303 303 303 305 305 302 296 288 280 275 270 267 265 263 261 261 259 258
309 311 311 309 309 310 311 313 314 314 314 314 312 309 306 302 300 299 298 297 297 295 295 295 297 298 300 302 302 302 298 290 281 275 271 266 264 262 261 261 259 258
303 304 305 305 305 307 307 309 309 309 310 311 310 308 305 300 298 297 296 295 294 292 292 292 290 290 294 298 300 301 299 291 281 275 271 267 264 262 260 260 259 258
301 300 299 299 299 301 302 303 305 305 305 307 307 305 301 298 296 294 293 292 291 290 291 292 289 288 291 296 298 299 300 293 281 274 270 266 264 262 260 259 258 258
297 297 297 296 295 295 296 297 299 301 301 303 303 300 297 295 293 291 291 290 291 290 288 288 289 289 290 292 294 296 296 290 281 275 269 265 263 262 260 259 258 256
294 295 296 297 295 293 293 295 297 297 296 296 296 294 293 293 290 288 288 288 289 289 287 286 286 286 284 283 285 287 285 282 279 274 269 266 264 262 260 259 257 255
295 296 296 296 294 292 292 294 297 296 292 292 291 288 288 289 288 284 284 285 285 284 285 285 285 285 283 279 277 278 277 274 272 268 265 266 265 264 261 258 257 255
297 296 295 294 293 292 291 292 293 293 290 288 286 284 284 285 283 278 278 280 280 279 281 283 283 283 282 278 273 271 271 270 267 261 259 260 261 262 261 258 257 256
297 296 295 294 293 293 293 292 290 289 286 284 283 282 280 279 278 276 277 278 276 275 277 280 281 281 280 278 273 267 264 264 262 257 255 257 258 257 257 256 256 255